UAE7828 OMDB-OEJN

Flight info

Callsign UAE7828
Flight time 2h 31m
Altitude 40000
Route KUTLI L519 ATUDO DCT GOLGU DCT RIBOT DCT MIGMA DCT ITRUX Y511 ASMIS T218 IMGUT DCT VEMEM
Aircraft A388/J-SADE2E3FGHIJ3J4J5M1RWXY/LB1D1

Departure

Time 2026-05-04 18:31
Airport Dubai International Airport (OMDB)

Arrival

Time 2026-05-04 21:03
Airport King Abdulaziz International Airport (OEJN)
Time Latitude Longitude Altitude Speed Heading
2026-05-04 18:01 25.24891 55.36302 26 ft 0 kts 211°
2026-05-04 18:20 25.24892 55.36303 26 ft 2 kts 211°
2026-05-04 18:21 25.24913 55.36317 29 ft 4 kts 211°
2026-05-04 18:21 25.24931 55.36330 32 ft 4 kts 208°
2026-05-04 18:21 25.24953 55.36337 32 ft 4 kts 179°
2026-05-04 18:21 25.24973 55.36331 25 ft 4 kts 144°
2026-05-04 18:22 25.24987 55.36313 32 ft 4 kts 122°
2026-05-04 18:22 25.25001 55.36288 32 ft 4 kts 122°
2026-05-04 18:22 25.25013 55.36266 32 ft 1 kts 122°
2026-05-04 18:24 25.25007 55.36276 32 ft 4 kts 121°
2026-05-04 18:24 25.24984 55.36318 25 ft 9 kts 121°
2026-05-04 18:25 25.24945 55.36389 26 ft 13 kts 122°
2026-05-04 18:25 25.24892 55.36483 26 ft 16 kts 122°
2026-05-04 18:25 25.24831 55.36591 26 ft 17 kts 119°
2026-05-04 18:25 25.24786 55.36709 26 ft 16 kts 104°
2026-05-04 18:26 25.24764 55.36813 26 ft 15 kts 109°
2026-05-04 18:26 25.24739 55.36907 26 ft 13 kts 76°
2026-05-04 18:26 25.24768 55.36978 27 ft 9 kts 84°
2026-05-04 18:26 25.24743 55.37050 27 ft 12 kts 119°
2026-05-04 18:27 25.24694 55.37139 27 ft 15 kts 122°
2026-05-04 18:27 25.24632 55.37246 27 ft 18 kts 122°
2026-05-04 18:27 25.24562 55.37369 26 ft 20 kts 122°
2026-05-04 18:27 25.24487 55.37501 26 ft 21 kts 122°
2026-05-04 18:28 25.24414 55.37631 29 ft 18 kts 121°
2026-05-04 18:28 25.24376 55.37701 26 ft 9 kts 110°
2026-05-04 18:28 25.24388 55.37751 27 ft 8 kts 47°
2026-05-04 18:28 25.24447 55.37793 27 ft 12 kts 32°
2026-05-04 18:29 25.24527 55.37850 29 ft 15 kts 35°
2026-05-04 18:29 25.24617 55.37920 28 ft 10 kts 34°
2026-05-04 18:29 25.24691 55.37974 28 ft 15 kts 33°
2026-05-04 18:29 25.24758 55.38022 30 ft 7 kts 31°
2026-05-04 18:30 25.24825 55.37995 30 ft 7 kts 294°
2026-05-04 18:30 25.24831 55.37982 30 ft 0 kts 302°
2026-05-04 18:30 25.24849 55.37951 30 ft 29 kts 301°
2026-05-04 18:31 25.25107 55.37486 32 ft 110 kts 301°
2026-05-04 18:31 25.25613 55.36571 31 ft 164 kts 300°
2026-05-04 18:31 25.26208 55.35484 577 ft 160 kts 299°
2026-05-04 18:31 25.26770 55.34437 1198 ft 157 kts 301°
2026-05-04 18:32 25.27329 55.33405 1812 ft 156 kts 302°
2026-05-04 18:32 25.27897 55.32375 2280 ft 165 kts 302°
2026-05-04 18:32 25.28479 55.31350 2692 ft 175 kts 303°
2026-05-04 18:32 25.29136 55.30189 3113 ft 182 kts 295°
2026-05-04 18:33 25.29310 55.28781 3487 ft 192 kts 258°
2026-05-04 18:33 25.28787 55.27394 3786 ft 202 kts 245°
2026-05-04 18:33 25.28136 55.25942 3967 ft 224 kts 245°
2026-05-04 18:33 25.27433 55.24372 4555 ft 229 kts 246°
2026-05-04 18:34 25.26748 55.22830 5258 ft 232 kts 246°
2026-05-04 18:34 25.26048 55.21217 5997 ft 235 kts 248°
2026-05-04 18:34 25.25325 55.19515 6412 ft 254 kts 248°
2026-05-04 18:34 25.24560 55.17706 7022 ft 261 kts 248°
2026-05-04 18:35 25.23758 55.15925 7755 ft 264 kts 242°
2026-05-04 18:35 25.22807 55.14118 8164 ft 283 kts 242°
2026-05-04 18:35 25.21789 55.12167 8524 ft 300 kts 242°
2026-05-04 18:35 25.20740 55.10157 9212 ft 304 kts 242°
2026-05-04 18:36 25.19788 55.08073 9915 ft 305 kts 250°
2026-05-04 18:36 25.18992 55.05875 10390 ft 316 kts 250°
2026-05-04 18:36 25.18138 55.03557 10574 ft 336 kts 250°
2026-05-04 18:36 25.17226 55.01109 10778 ft 353 kts 249°
2026-05-04 18:37 25.16283 54.98594 11429 ft 354 kts 249°
2026-05-04 18:37 25.15236 54.96119 12046 ft 360 kts 239°
2026-05-04 18:37 25.13537 54.94083 12726 ft 365 kts 218°
2026-05-04 18:37 25.11278 54.92780 13396 ft 371 kts 198°
2026-05-04 18:38 25.08719 54.92352 14029 ft 375 kts 182°
2026-05-04 18:38 25.06104 54.92413 14629 ft 377 kts 178°
2026-05-04 18:38 25.03473 54.92552 15254 ft 379 kts 179°
2026-05-04 18:38 25.00838 54.92759 15847 ft 382 kts 176°
2026-05-04 18:39 24.98232 54.93001 16443 ft 384 kts 177°
2026-05-04 18:39 24.95561 54.93208 17056 ft 386 kts 178°
2026-05-04 18:39 24.92869 54.93398 17669 ft 389 kts 178°
2026-05-04 18:39 24.90198 54.93580 18226 ft 391 kts 179°
2026-05-04 18:40 24.87446 54.93490 18708 ft 391 kts 190°
2026-05-04 18:40 24.84816 54.92753 19201 ft 391 kts 203°
2026-05-04 18:40 24.82374 54.91442 19700 ft 391 kts 211°
2026-05-04 18:40 24.79989 54.89986 20187 ft 394 kts 211°
2026-05-04 18:41 24.77574 54.88539 20673 ft 396 kts 210°
2026-05-04 18:41 24.75145 54.87094 21160 ft 398 kts 211°
2026-05-04 18:41 24.72701 54.85640 21641 ft 401 kts 211°
2026-05-04 18:41 24.70271 54.84194 22097 ft 403 kts 211°
2026-05-04 18:42 24.67799 54.82718 22584 ft 406 kts 211°
2026-05-04 18:42 24.65346 54.81173 23040 ft 408 kts 213°
2026-05-04 18:42 24.62896 54.79584 23482 ft 410 kts 213°
2026-05-04 18:42 24.60434 54.77985 23884 ft 412 kts 213°
2026-05-04 18:43 24.57958 54.76387 24288 ft 414 kts 213°
2026-05-04 18:43 24.55465 54.74785 24651 ft 416 kts 213°
2026-05-04 18:43 24.52955 54.73179 25031 ft 419 kts 213°
2026-05-04 18:43 24.50432 54.71562 25425 ft 421 kts 213°
2026-05-04 18:44 24.47900 54.69935 25820 ft 423 kts 213°
2026-05-04 18:44 24.47040 54.69383 25954 ft 424 kts 213°
2026-05-04 18:44 24.42797 54.66659 26645 ft 427 kts 213°
2026-05-04 18:44 24.40222 54.65010 27065 ft 430 kts 213°
2026-05-04 18:45 24.37630 54.63354 27537 ft 432 kts 213°
2026-05-04 18:45 24.35024 54.61690 27984 ft 435 kts 213°
2026-05-04 18:45 24.32403 54.60010 28445 ft 437 kts 215°
2026-05-04 18:45 24.29957 54.58049 28922 ft 436 kts 224°
2026-05-04 18:46 24.27844 54.55675 29429 ft 435 kts 233°
2026-05-04 18:46 24.26108 54.52967 29908 ft 435 kts 242°
2026-05-04 18:46 24.24616 54.50077 30285 ft 438 kts 242°
2026-05-04 18:46 24.23092 54.47168 30695 ft 442 kts 242°
2026-05-04 18:47 24.21549 54.44248 31132 ft 444 kts 242°
2026-05-04 18:47 24.19995 54.41310 31565 ft 447 kts 242°
2026-05-04 18:47 24.18430 54.38352 31983 ft 450 kts 242°
2026-05-04 18:47 24.16857 54.35376 32406 ft 453 kts 242°
2026-05-04 18:48 24.15275 54.32384 32820 ft 456 kts 242°
2026-05-04 18:48 24.13680 54.29368 33243 ft 459 kts 242°
2026-05-04 18:48 24.12077 54.26340 33653 ft 462 kts 242°
2026-05-04 18:48 24.10459 54.23286 34040 ft 464 kts 242°
2026-05-04 18:49 24.08837 54.20225 34457 ft 466 kts 242°
2026-05-04 18:49 24.07210 54.17156 34918 ft 466 kts 242°
2026-05-04 18:49 24.05589 54.14103 35485 ft 463 kts 242°
2026-05-04 18:49 24.03973 54.11061 36070 ft 461 kts 242°
2026-05-04 18:50 24.02369 54.08042 36630 ft 458 kts 242°
2026-05-04 18:50 24.00771 54.05036 37193 ft 456 kts 242°
2026-05-04 18:50 23.99183 54.02050 37747 ft 453 kts 242°
2026-05-04 18:50 23.97600 53.99077 38298 ft 451 kts 241°
2026-05-04 18:51 23.96025 53.96118 38791 ft 449 kts 241°
2026-05-04 18:51 23.94478 53.93215 39199 ft 447 kts 241°
2026-05-04 18:51 23.92912 53.90278 39559 ft 447 kts 241°
2026-05-04 18:51 23.91350 53.87349 39909 ft 447 kts 241°
2026-05-04 18:52 23.89774 53.84398 40019 ft 453 kts 240°
2026-05-04 18:52 23.86608 53.78472 40014 ft 448 kts 240°
2026-05-04 18:53 23.83460 53.72588 40012 ft 451 kts 240°
2026-05-04 18:53 23.80292 53.66673 40012 ft 451 kts 240°
2026-05-04 18:54 23.77126 53.60769 40014 ft 451 kts 240°
2026-05-04 18:54 23.73959 53.54870 40011 ft 450 kts 240°
2026-05-04 18:55 23.70792 53.48979 39998 ft 450 kts 240°
2026-05-04 18:55 23.66034 53.40141 40006 ft 451 kts 240°
2026-05-04 18:56 23.63393 53.35240 40011 ft 451 kts 240°
2026-05-04 18:56 23.60205 53.29334 40017 ft 452 kts 240°
2026-05-04 18:57 23.57009 53.23418 40024 ft 453 kts 240°
2026-05-04 18:57 23.53811 53.17506 40029 ft 453 kts 240°
2026-05-04 18:58 23.50603 53.11583 40031 ft 454 kts 240°
2026-05-04 18:58 23.47412 53.05698 40032 ft 454 kts 240°
2026-05-04 18:59 23.44183 52.99749 40037 ft 454 kts 240°
2026-05-04 18:59 23.40973 52.93844 40038 ft 453 kts 240°
2026-05-04 19:00 23.37762 52.87942 40038 ft 453 kts 240°
2026-05-04 19:00 23.34554 52.82054 40034 ft 452 kts 240°
2026-05-04 19:01 23.31346 52.76173 40025 ft 452 kts 240°
2026-05-04 19:01 23.28139 52.70301 40027 ft 451 kts 240°
2026-05-04 19:02 23.24934 52.64437 40027 ft 451 kts 240°
2026-05-04 19:02 23.21728 52.58579 40022 ft 451 kts 240°
2026-05-04 19:03 23.18633 52.52661 40020 ft 450 kts 244°
2026-05-04 19:03 23.16316 52.46394 40018 ft 451 kts 251°
2026-05-04 19:04 23.14290 52.39944 40023 ft 451 kts 250°
2026-05-04 19:04 23.12242 52.33493 40027 ft 452 kts 250°
2026-05-04 19:05 23.10194 52.27044 40028 ft 452 kts 250°
2026-05-04 19:05 23.08143 52.20594 40035 ft 452 kts 250°
2026-05-04 19:06 23.06087 52.14141 40035 ft 452 kts 250°
2026-05-04 19:06 23.04029 52.07690 40034 ft 452 kts 250°
2026-05-04 19:07 23.01969 52.01243 40028 ft 452 kts 250°
2026-05-04 19:07 22.99907 51.94801 40028 ft 452 kts 250°
2026-05-04 19:08 22.97843 51.88360 40033 ft 452 kts 250°
2026-05-04 19:08 22.95773 51.81913 40033 ft 452 kts 250°
2026-05-04 19:09 22.93702 51.75472 40033 ft 452 kts 250°
2026-05-04 19:09 22.91629 51.69036 40033 ft 452 kts 250°
2026-05-04 19:10 22.89553 51.62599 40030 ft 452 kts 250°
2026-05-04 19:10 22.87474 51.56165 40039 ft 452 kts 250°
2026-05-04 19:11 22.85565 51.49720 40040 ft 452 kts 255°
2026-05-04 19:11 22.84475 51.43002 40038 ft 453 kts 263°
2026-05-04 19:12 22.84228 51.32737 40028 ft 454 kts 268°
2026-05-04 19:13 22.84180 51.25889 40035 ft 454 kts 267°
2026-05-04 19:13 22.84131 51.19040 40036 ft 455 kts 267°
2026-05-04 19:14 22.84081 51.12183 40033 ft 455 kts 267°
2026-05-04 19:14 22.84028 51.05340 40041 ft 455 kts 267°
2026-05-04 19:15 22.83971 50.98471 40040 ft 455 kts 267°
2026-05-04 19:15 22.83911 50.91612 40043 ft 455 kts 267°
2026-05-04 19:16 22.83849 50.84752 40039 ft 455 kts 267°
2026-05-04 19:16 22.83783 50.77889 40039 ft 455 kts 267°
2026-05-04 19:17 22.83715 50.71017 40041 ft 456 kts 267°
2026-05-04 19:17 22.83644 50.64150 40047 ft 456 kts 267°
2026-05-04 19:18 22.83569 50.57279 40043 ft 456 kts 267°
2026-05-04 19:18 22.83492 50.50401 40044 ft 456 kts 267°
2026-05-04 19:19 22.83412 50.43527 40046 ft 456 kts 267°
2026-05-04 19:19 22.83329 50.36649 40061 ft 456 kts 266°
2026-05-04 19:20 22.83243 50.29837 40060 ft 455 kts 266°
2026-05-04 19:20 22.83154 50.22979 40053 ft 454 kts 266°
2026-05-04 19:21 22.83062 50.16137 40043 ft 454 kts 266°
2026-05-04 19:21 22.82968 50.09306 40038 ft 453 kts 266°
2026-05-04 19:22 22.82871 50.02476 40035 ft 453 kts 266°
2026-05-04 19:22 22.82771 49.95653 40025 ft 453 kts 266°
2026-05-04 19:23 22.82668 49.88830 40026 ft 453 kts 266°
2026-05-04 19:23 22.82562 49.81996 40029 ft 453 kts 266°
2026-05-04 19:24 22.82453 49.75205 40029 ft 454 kts 266°
2026-05-04 19:24 22.82340 49.68311 40032 ft 455 kts 266°
2026-05-04 19:25 22.82226 49.61508 40038 ft 455 kts 266°
2026-05-04 19:25 22.82108 49.54650 40039 ft 455 kts 266°
2026-05-04 19:26 22.81987 49.47789 40057 ft 455 kts 266°
2026-05-04 19:26 22.81863 49.40943 40047 ft 454 kts 266°
2026-05-04 19:27 22.81737 49.34115 40047 ft 453 kts 266°
2026-05-04 19:27 22.81608 49.27293 40046 ft 452 kts 266°
2026-05-04 19:28 22.81476 49.20482 40041 ft 451 kts 266°
2026-05-04 19:28 22.81341 49.13687 40034 ft 451 kts 266°
2026-05-04 19:29 22.81204 49.06901 40028 ft 450 kts 266°
2026-05-04 19:29 22.81064 49.00116 40028 ft 450 kts 266°
2026-05-04 19:30 22.80921 48.93345 40026 ft 449 kts 266°
2026-05-04 19:30 22.80776 48.86577 40024 ft 449 kts 266°
2026-05-04 19:31 22.80627 48.79805 40030 ft 449 kts 266°
2026-05-04 19:31 22.80476 48.73031 40029 ft 450 kts 266°
2026-05-04 19:32 22.80322 48.66254 40033 ft 450 kts 266°
2026-05-04 19:32 22.80165 48.59469 40037 ft 450 kts 266°
2026-05-04 19:33 22.80006 48.52728 40038 ft 451 kts 266°
2026-05-04 19:33 22.79843 48.45934 40039 ft 451 kts 266°
2026-05-04 19:34 22.79677 48.39141 40032 ft 451 kts 266°
2026-05-04 19:34 22.79509 48.32341 40034 ft 452 kts 266°
2026-05-04 19:35 22.79337 48.25538 40035 ft 452 kts 266°
2026-05-04 19:35 22.79162 48.18728 40029 ft 452 kts 266°
2026-05-04 19:36 22.78985 48.11920 40031 ft 452 kts 266°
2026-05-04 19:36 22.78803 48.05103 40034 ft 452 kts 266°
2026-05-04 19:37 22.78619 47.98289 40039 ft 452 kts 266°
2026-05-04 19:37 22.78433 47.91476 40041 ft 453 kts 266°
2026-05-04 19:38 22.78243 47.84662 40039 ft 452 kts 266°
2026-05-04 19:38 22.78051 47.77893 40047 ft 452 kts 266°
2026-05-04 19:39 22.77855 47.71037 40046 ft 452 kts 266°
2026-05-04 19:39 22.77657 47.64241 40049 ft 451 kts 266°
2026-05-04 19:40 22.77458 47.57489 40051 ft 451 kts 265°
2026-05-04 19:40 22.77253 47.50655 40053 ft 451 kts 265°
2026-05-04 19:41 22.77048 47.43912 40058 ft 451 kts 265°
2026-05-04 19:41 22.76839 47.37125 40060 ft 451 kts 265°
2026-05-04 19:42 22.76628 47.30334 40064 ft 451 kts 265°
2026-05-04 19:42 22.76415 47.23547 40070 ft 451 kts 265°
2026-05-04 19:43 22.76302 47.16754 40071 ft 452 kts 270°
2026-05-04 19:43 22.76832 47.09945 40074 ft 454 kts 272°
2026-05-04 19:44 22.77379 47.03140 40090 ft 454 kts 272°
2026-05-04 19:44 22.77916 46.96332 40099 ft 453 kts 272°
2026-05-04 19:45 22.78359 46.90688 39951 ft 449 kts 272°
2026-05-04 19:45 22.78884 46.83942 39864 ft 452 kts 272°
2026-05-04 19:46 22.79411 46.77143 39867 ft 453 kts 272°
2026-05-04 19:46 22.79936 46.70346 39875 ft 453 kts 272°
2026-05-04 19:47 22.80458 46.63545 39881 ft 453 kts 272°
2026-05-04 19:47 22.80977 46.56745 39887 ft 453 kts 271°
2026-05-04 19:48 22.81493 46.49943 39885 ft 453 kts 271°
2026-05-04 19:48 22.82006 46.43145 39906 ft 452 kts 271°
2026-05-04 19:49 22.82514 46.36362 39902 ft 452 kts 271°
2026-05-04 19:49 22.83016 46.29578 39902 ft 451 kts 271°
2026-05-04 19:50 22.83512 46.22852 39898 ft 450 kts 271°
2026-05-04 19:50 22.84009 46.16085 39891 ft 450 kts 271°
2026-05-04 19:51 22.84501 46.09325 39886 ft 450 kts 271°
2026-05-04 19:51 22.84990 46.02572 39881 ft 449 kts 271°
2026-05-04 19:52 22.85477 45.95819 39878 ft 449 kts 271°
2026-05-04 19:52 22.85960 45.89075 39884 ft 448 kts 271°
2026-05-04 19:53 22.86439 45.82340 39879 ft 448 kts 271°
2026-05-04 19:53 22.86915 45.75614 39877 ft 447 kts 271°
2026-05-04 19:54 22.87388 45.68896 39867 ft 447 kts 271°
2026-05-04 19:54 22.87857 45.62184 39867 ft 446 kts 271°
2026-05-04 19:55 22.88323 45.55478 39871 ft 446 kts 271°
2026-05-04 19:55 22.88786 45.48773 39869 ft 446 kts 271°
2026-05-04 19:56 22.89246 45.42074 39870 ft 445 kts 271°
2026-05-04 19:56 22.89702 45.35376 39898 ft 445 kts 271°
2026-05-04 19:57 22.90156 45.28694 39890 ft 444 kts 271°
2026-05-04 19:57 22.90603 45.22058 39890 ft 444 kts 271°
2026-05-04 19:58 22.91049 45.15387 39882 ft 443 kts 271°
2026-05-04 19:58 22.91493 45.08727 39878 ft 443 kts 271°
2026-05-04 19:59 22.91932 45.02073 39877 ft 442 kts 271°
2026-05-04 19:59 22.92367 44.95426 39877 ft 442 kts 271°
2026-05-04 20:00 22.92800 44.88778 39882 ft 442 kts 271°
2026-05-04 20:00 22.93229 44.82134 39880 ft 441 kts 271°
2026-05-04 20:01 22.93657 44.75490 39877 ft 441 kts 271°
2026-05-04 20:01 22.94077 44.68845 39876 ft 441 kts 270°
2026-05-04 20:02 22.93988 44.62214 39875 ft 439 kts 265°
2026-05-04 20:02 22.93692 44.55595 39890 ft 439 kts 265°
2026-05-04 20:03 22.93409 44.48982 39890 ft 439 kts 265°
2026-05-04 20:03 22.93120 44.42360 39892 ft 439 kts 265°
2026-05-04 20:04 22.92826 44.35749 39908 ft 439 kts 265°
2026-05-04 20:04 22.92530 44.29150 39903 ft 438 kts 265°
2026-05-04 20:05 22.92233 44.22594 39901 ft 438 kts 265°
2026-05-04 20:05 22.91931 44.15998 39900 ft 438 kts 265°
2026-05-04 20:06 22.91627 44.09406 39901 ft 438 kts 265°
2026-05-04 20:06 22.91320 44.02815 39915 ft 438 kts 265°
2026-05-04 20:07 22.91011 43.96228 39915 ft 437 kts 265°
2026-05-04 20:07 22.90699 43.89643 39906 ft 437 kts 265°
2026-05-04 20:08 22.90384 43.83059 39917 ft 437 kts 265°
2026-05-04 20:08 22.90067 43.76480 39920 ft 437 kts 265°
2026-05-04 20:09 22.89747 43.69908 39930 ft 436 kts 265°
2026-05-04 20:09 22.89425 43.63336 39933 ft 436 kts 265°
2026-05-04 20:10 22.89100 43.56772 39951 ft 436 kts 265°
2026-05-04 20:10 22.88773 43.50211 39953 ft 435 kts 265°
2026-05-04 20:11 22.88444 43.43660 39947 ft 435 kts 265°
2026-05-04 20:11 22.88112 43.37119 39964 ft 434 kts 265°
2026-05-04 20:12 22.87778 43.30585 39935 ft 434 kts 265°
2026-05-04 20:12 22.87442 43.24061 39947 ft 433 kts 265°
2026-05-04 20:13 22.87103 43.17541 39976 ft 433 kts 265°
2026-05-04 20:13 22.86763 43.11034 39960 ft 432 kts 265°
2026-05-04 20:14 22.86422 43.04570 39966 ft 432 kts 265°
2026-05-04 20:14 22.86075 42.98035 39981 ft 431 kts 264°
2026-05-04 20:15 22.85730 42.91592 39974 ft 431 kts 264°
2026-05-04 20:15 22.85380 42.85119 39979 ft 430 kts 264°
2026-05-04 20:16 22.85029 42.78650 39978 ft 430 kts 264°
2026-05-04 20:16 22.84675 42.72190 39969 ft 429 kts 264°
2026-05-04 20:17 22.84318 42.65729 39954 ft 429 kts 265°
2026-05-04 20:17 22.83959 42.59271 39968 ft 429 kts 264°
2026-05-04 20:18 22.83598 42.52809 39975 ft 429 kts 264°
2026-05-04 20:18 22.83234 42.46346 39967 ft 429 kts 264°
2026-05-04 20:19 22.82868 42.39886 39982 ft 430 kts 264°
2026-05-04 20:19 22.82498 42.33419 39991 ft 430 kts 264°
2026-05-04 20:20 22.82125 42.26953 39994 ft 430 kts 264°
2026-05-04 20:20 22.81750 42.20482 39993 ft 430 kts 264°
2026-05-04 20:21 22.81372 42.14010 40010 ft 430 kts 264°
2026-05-04 20:21 22.80803 42.04361 39993 ft 431 kts 264°
2026-05-04 20:22 22.80417 41.97874 40021 ft 432 kts 264°
2026-05-04 20:22 22.80031 41.91380 40035 ft 432 kts 264°
2026-05-04 20:23 22.79463 41.84908 40036 ft 432 kts 262°
2026-05-04 20:23 22.78853 41.78437 40035 ft 432 kts 262°
2026-05-04 20:24 22.78242 41.71968 40032 ft 431 kts 262°
2026-05-04 20:24 22.77623 41.65518 40041 ft 431 kts 262°
2026-05-04 20:25 22.77001 41.59065 40044 ft 430 kts 262°
2026-05-04 20:25 22.76376 41.52622 40054 ft 430 kts 262°
2026-05-04 20:26 22.75750 41.46188 40030 ft 429 kts 262°
2026-05-04 20:26 22.75122 41.39758 40034 ft 429 kts 262°
2026-05-04 20:27 22.74313 41.33365 40058 ft 427 kts 257°
2026-05-04 20:27 22.72763 41.27165 40056 ft 426 kts 250°
2026-05-04 20:28 22.70614 41.21189 40053 ft 425 kts 248°
2026-05-04 20:28 22.68441 41.15238 40050 ft 425 kts 248°
2026-05-04 20:29 22.66279 41.09331 40061 ft 424 kts 248°
2026-05-04 20:29 22.64102 41.03400 40037 ft 424 kts 248°
2026-05-04 20:30 22.61924 40.97478 40050 ft 423 kts 248°
2026-05-04 20:30 22.59745 40.91559 40043 ft 423 kts 248°
2026-05-04 20:31 22.57564 40.85645 40039 ft 423 kts 248°
2026-05-04 20:31 22.55381 40.79733 40044 ft 423 kts 248°
2026-05-04 20:32 22.53196 40.73822 40046 ft 423 kts 248°
2026-05-04 20:32 22.52105 40.70873 39890 ft 422 kts 248°
2026-05-04 20:32 22.51013 40.67924 39231 ft 424 kts 248°
2026-05-04 20:33 22.49905 40.64934 38120 ft 434 kts 249°
2026-05-04 20:33 22.48772 40.61877 37040 ft 440 kts 248°
2026-05-04 20:33 22.47637 40.58817 36491 ft 435 kts 248°
2026-05-04 20:33 22.46517 40.55802 35823 ft 432 kts 248°
2026-05-04 20:34 22.45388 40.52763 34705 ft 441 kts 249°
2026-05-04 20:34 22.44240 40.49674 33696 ft 445 kts 248°
2026-05-04 20:34 22.43089 40.46578 32917 ft 443 kts 248°
2026-05-04 20:34 22.42331 40.44544 32561 ft 438 kts 248°
2026-05-04 20:35 22.40834 40.40524 32017 ft 425 kts 248°
2026-05-04 20:35 22.39785 40.37710 31439 ft 422 kts 248°
2026-05-04 20:35 22.39060 40.35766 31050 ft 420 kts 248°
2026-05-04 20:35 22.38047 40.33053 30510 ft 417 kts 248°
2026-05-04 20:36 22.36964 40.30152 29674 ft 418 kts 248°
2026-05-04 20:36 22.35879 40.27248 29008 ft 415 kts 248°
2026-05-04 20:36 22.34812 40.24394 28653 ft 406 kts 248°
2026-05-04 20:36 22.33763 40.21587 28125 ft 401 kts 248°
2026-05-04 20:37 22.32720 40.18802 27509 ft 398 kts 248°
2026-05-04 20:37 22.31687 40.16044 26967 ft 394 kts 248°
2026-05-04 20:37 22.30661 40.13304 26366 ft 393 kts 248°
2026-05-04 20:37 22.29639 40.10579 25783 ft 390 kts 248°
2026-05-04 20:38 22.28623 40.07873 25215 ft 388 kts 248°
2026-05-04 20:38 22.27611 40.05176 24642 ft 387 kts 248°
2026-05-04 20:38 22.26534 40.02518 24056 ft 386 kts 243°
2026-05-04 20:38 22.25196 40.00018 23445 ft 385 kts 236°
2026-05-04 20:39 22.23702 39.97622 22847 ft 383 kts 236°
2026-05-04 20:39 22.22245 39.95248 22544 ft 373 kts 237°
2026-05-04 20:39 22.20844 39.92949 22364 ft 360 kts 237°
2026-05-04 20:39 22.19490 39.90727 22261 ft 348 kts 237°
2026-05-04 20:40 22.18180 39.88579 22074 ft 339 kts 237°
2026-05-04 20:40 22.16884 39.86457 21700 ft 337 kts 237°
2026-05-04 20:40 22.15599 39.84354 21326 ft 336 kts 237°
2026-05-04 20:40 22.14302 39.82234 20797 ft 339 kts 236°
2026-05-04 20:41 22.13020 39.80140 20347 ft 340 kts 236°
2026-05-04 20:41 22.11727 39.78030 20031 ft 335 kts 236°
2026-05-04 20:41 22.10447 39.75940 19627 ft 333 kts 236°
2026-05-04 20:41 22.09171 39.73857 19245 ft 332 kts 236°
2026-05-04 20:42 22.07903 39.71787 18879 ft 330 kts 236°
2026-05-04 20:42 22.06625 39.69702 18512 ft 328 kts 236°
2026-05-04 20:42 22.05386 39.67684 18139 ft 327 kts 236°
2026-05-04 20:42 22.04137 39.65648 17746 ft 324 kts 236°
2026-05-04 20:43 22.02901 39.63635 17400 ft 320 kts 236°
2026-05-04 20:43 22.01679 39.61645 17042 ft 317 kts 236°
2026-05-04 20:43 22.00468 39.59674 16678 ft 315 kts 236°
2026-05-04 20:43 21.99265 39.57717 16328 ft 312 kts 236°
2026-05-04 20:44 21.98074 39.55781 15979 ft 309 kts 236°
2026-05-04 20:44 21.96890 39.53857 15646 ft 306 kts 236°
2026-05-04 20:44 21.95719 39.51953 15287 ft 304 kts 236°
2026-05-04 20:44 21.94561 39.50064 14985 ft 301 kts 237°
2026-05-04 20:45 21.93571 39.48063 14564 ft 304 kts 244°
2026-05-04 20:45 21.92668 39.45988 14140 ft 306 kts 243°
2026-05-04 20:45 21.91774 39.43962 14050 ft 294 kts 243°
2026-05-04 20:45 21.90906 39.42009 13977 ft 284 kts 243°
2026-05-04 20:46 21.90070 39.40131 13889 ft 273 kts 243°
2026-05-04 20:46 21.89264 39.38322 13795 ft 263 kts 242°
2026-05-04 20:46 21.88490 39.36586 13727 ft 253 kts 242°
2026-05-04 20:46 21.87730 39.34886 13392 ft 253 kts 243°
2026-05-04 20:47 21.86965 39.33178 12981 ft 257 kts 243°
2026-05-04 20:47 21.86194 39.31452 12684 ft 255 kts 243°
2026-05-04 20:47 21.85425 39.29731 12366 ft 254 kts 244°
2026-05-04 20:47 21.84659 39.28016 12071 ft 254 kts 244°
2026-05-04 20:48 21.83895 39.26306 11789 ft 253 kts 244°
2026-05-04 20:48 21.83129 39.24604 11497 ft 252 kts 241°
2026-05-04 20:48 21.81985 39.23195 11177 ft 253 kts 213°
2026-05-04 20:48 21.80350 39.22567 10878 ft 257 kts 185°
2026-05-04 20:49 21.78609 39.22850 10568 ft 260 kts 162°
2026-05-04 20:49 21.76915 39.23549 10268 ft 261 kts 160°
2026-05-04 20:49 21.75231 39.24274 10007 ft 260 kts 160°
2026-05-04 20:49 21.73523 39.24989 9363 ft 270 kts 161°
2026-05-04 20:50 21.71719 39.25718 8552 ft 284 kts 161°
2026-05-04 20:50 21.69843 39.26465 7727 ft 294 kts 161°
2026-05-04 20:50 21.67914 39.27230 7085 ft 296 kts 161°
2026-05-04 20:50 21.65985 39.27993 6551 ft 295 kts 160°
2026-05-04 20:51 21.64064 39.28753 5968 ft 294 kts 160°
2026-05-04 20:51 21.62147 39.29507 5579 ft 293 kts 160°
2026-05-04 20:51 21.60245 39.30253 5434 ft 290 kts 160°
2026-05-04 20:51 21.58343 39.30998 5328 ft 292 kts 160°
2026-05-04 20:52 21.56443 39.31744 5269 ft 290 kts 160°
2026-05-04 20:52 21.54540 39.32490 5166 ft 291 kts 160°
2026-05-04 20:52 21.52646 39.33233 5041 ft 289 kts 160°
2026-05-04 20:52 21.50767 39.33971 4934 ft 287 kts 160°
2026-05-04 20:53 21.48887 39.34708 4819 ft 288 kts 160°
2026-05-04 20:53 21.47004 39.35446 4704 ft 288 kts 160°
2026-05-04 20:53 21.45117 39.36185 4601 ft 289 kts 160°
2026-05-04 20:53 21.43231 39.36925 4428 ft 290 kts 160°
2026-05-04 20:54 21.41310 39.37552 4319 ft 285 kts 174°
2026-05-04 20:54 21.39403 39.37363 4229 ft 270 kts 202°
2026-05-04 20:54 21.37863 39.36338 4138 ft 255 kts 228°
2026-05-04 20:54 21.36890 39.34823 4057 ft 241 kts 250°
2026-05-04 20:55 21.36523 39.33124 3966 ft 229 kts 271°
2026-05-04 20:55 21.36731 39.31464 3817 ft 225 kts 291°
2026-05-04 20:55 21.37459 39.30002 3731 ft 218 kts 311°
2026-05-04 20:55 21.38622 39.29055 3649 ft 207 kts 337°
2026-05-04 20:56 21.39977 39.28544 3404 ft 208 kts 343°
2026-05-04 20:56 21.41375 39.28037 3120 ft 216 kts 340°
2026-05-04 20:56 21.42788 39.27474 3039 ft 215 kts 340°
2026-05-04 20:56 21.44177 39.26929 2844 ft 215 kts 340°
2026-05-04 20:57 21.45618 39.26360 3013 ft 222 kts 340°
2026-05-04 20:57 21.47051 39.25795 3006 ft 221 kts 340°
2026-05-04 20:57 21.48460 39.25239 3005 ft 209 kts 340°
2026-05-04 20:57 21.49777 39.24719 3000 ft 194 kts 340°
2026-05-04 20:58 21.50988 39.24240 3015 ft 174 kts 339°
2026-05-04 20:58 21.52066 39.23815 2940 ft 161 kts 340°
2026-05-04 20:58 21.53108 39.23404 2734 ft 159 kts 340°
2026-05-04 20:58 21.54119 39.23004 2547 ft 147 kts 340°
2026-05-04 20:59 21.55028 39.22645 2363 ft 134 kts 341°
2026-05-04 20:59 21.55871 39.22312 2208 ft 131 kts 342°
2026-05-04 20:59 21.56720 39.21976 2033 ft 129 kts 342°
2026-05-04 20:59 21.57565 39.21642 1873 ft 129 kts 342°
2026-05-04 21:00 21.58403 39.21311 1700 ft 128 kts 342°
2026-05-04 21:00 21.59240 39.20981 1547 ft 128 kts 342°
2026-05-04 21:00 21.60075 39.20643 1382 ft 128 kts 341°
2026-05-04 21:00 21.60915 39.20302 1207 ft 129 kts 342°
2026-05-04 21:01 21.61760 39.19960 1075 ft 130 kts 342°
2026-05-04 21:01 21.62622 39.19621 885 ft 134 kts 342°
2026-05-04 21:01 21.63500 39.19282 725 ft 134 kts 340°
2026-05-04 21:01 21.64379 39.18935 553 ft 135 kts 340°
2026-05-04 21:02 21.65241 39.18592 382 ft 131 kts 341°
2026-05-04 21:02 21.66110 39.18259 204 ft 134 kts 340°
2026-05-04 21:02 21.66977 39.17917 51 ft 131 kts 339°
2026-05-04 21:02 21.67725 39.17628 38 ft 91 kts 339°
2026-05-04 21:03 21.68072 39.17490 35 ft 34 kts 340°
2026-05-04 21:03 21.68265 39.17409 33 ft 24 kts 326°
2026-05-04 21:03 21.68358 39.17285 31 ft 20 kts 304°
2026-05-04 21:03 21.68383 39.17246 32 ft 19 kts 305°
2026-05-04 21:04 21.68279 39.17172 33 ft 16 kts 159°
2026-05-04 21:04 21.68159 39.17221 34 ft 20 kts 159°
2026-05-04 21:05 21.68022 39.17276 35 ft 17 kts 160°
2026-05-04 21:05 21.67932 39.17306 36 ft 12 kts 175°
2026-05-04 21:05 21.67875 39.17256 36 ft 13 kts 244°
2026-05-04 21:05 21.67836 39.17156 36 ft 14 kts 249°
2026-05-04 21:06 21.67777 39.17098 36 ft 12 kts 175°
2026-05-04 21:06 21.67682 39.17128 36 ft 12 kts 159°
2026-05-04 21:06 21.67593 39.17163 37 ft 15 kts 160°
2026-05-04 21:06 21.67494 39.17191 37 ft 15 kts 186°
2026-05-04 21:07 21.67399 39.17133 37 ft 13 kts 221°
2026-05-04 21:07 21.67341 39.17073 37 ft 8 kts 225°
2026-05-04 21:07 21.67301 39.17028 37 ft 8 kts 226°
2026-05-04 21:07 21.67278 39.17008 37 ft 2 kts 184°
2026-05-04 21:08 21.67254 39.17014 38 ft 6 kts 153°
2026-05-04 21:08 21.67229 39.17034 38 ft 1 kts 139°
2026-05-04 21:08 21.67218 39.17045 38 ft 3 kts 137°
2026-05-04 21:08 21.67207 39.17056 38 ft 2 kts 138°
2026-05-04 21:09 21.67206 39.17056 38 ft 0 kts 138°